www.pogodaiklimat.ru

Погода и климат >> Архив погоды >> Сенегал >> Сент-Луис


ПОГОДА в Сент-Луисе

  • Прогноз погоды в Сент-Луисе
  • Монитор погоды в Сент-Луисе

АРХИВ ПОГОДЫ в Сент-Луисе

Время (UTC), дата Ветер
(напр.,м/с)
 
Видим.   Явления Облачность Т
(С)
Тd
(С)
f
(%)
Тe
(С)
Тes
(С)
Комфортность P
(гПа)
Po
(гПа)
Тmin
(С)
Tmax
(С)
R
(мм)
R24
(мм)
S
(см)
12 11.08 З 6 10 км 4/4 450 м
[Sc]
+30.5 +22.5 62 +40 +44 очень
душно
1012.3 1011.8
15 11.08 З 5 10 км 3/3 450 м
[Sc]
+30.5 +23.3 65 +41 +47 опасность
перегрева
1011.5 1011.0
18 11.08 З 6 10 км ясно +29.2 +23.6 72 +40 +41 очень
душно
1010.4 1009.9 +31.7
21 11.08 З 4 10 км 3/3 300 м
[Sc]
+27.3 +23.7 81 +37 +37 очень
душно
1012.5 1012.0
00 12.08 З 5 10 км 9/4 300 м
[Sc Ci sp]
+27.0 +23.1 79 +36 +36 очень
душно
1013.7 1013.2
03 12.08 З 4 10 км 8/0
[Ci sp]
+27.0 +24.1 84 +37 +37 очень
душно
1012.3 1011.8
06 12.08 З 5 10 км 5/3 300 м
[Sc Ci sp]
+27.0 +24.1 84 +37 +37 очень
душно
1012.6 1012.1 +26.2
09 12.08 З 5 10 км 8/6 300 м
[Sc Ci sp]
+29.0 +24.8 78 +41 +43 опасность
перегрева
1013.3 1012.8
12 12.08 З 4 10 км 8/5 400 м
[Sc Ci sp]
+30.6 +24.8 71 +43 +49 опасность
перегрева
1013.6 1013.1
15 12.08 З 4 10 км 6/6 480 м
[Sc]
+31.7 +22.9 60 +42 +46 опасность
перегрева
1012.2 1011.7
18 12.08 З 5 10 км 4/4 330 м
[Cu med, cong Ac trans]
+29.5 +26.7 85 +46 +47 опасность
перегрева
1012.1 1011.6 +31.5
21 12.08 З 4 10 км 1/1 330 м
[Sc]
+27.5 +23.6 79 +37 +37 очень
душно
1013.8 1013.3
00 13.08 З 4 10 км 5/5 300 м
[Sc]
+26.9 +25.3 91 +39 +39 очень
душно
1014.3 1013.8
03 13.08 З 4 10 км 8/8 300 м
[Sc]
+26.5 +25.1 92 +38 +38 очень
душно
1012.9 1012.4
06 13.08 З 5 10 км 5/5 300 м
[Sc]
+26.4 +24.4 89 +37 +37 очень
душно
1012.8 1012.3 +25.5
09 13.08 З 4 10 км 5/5 300 м
[Sc]
+27.4 +24.7 85 +39 +41 очень
душно
1013.8 1013.3
12 13.08 З 6 10 км 1/1 300 м
[Sc]
+29.5 +25.3 78 +43 +50 опасность
перегрева
1013.9 1013.4
15 13.08 З 6 10 км 4/4 300 м
[Sc]
+30.0 +25.7 78 +45 +48 опасность
перегрева
1010.2 1011.3
18 13.08 З 7 10 км 5/5 300 м
[Sc]
+27.9 +22.5 72 +37 +37 очень
душно
1010.7 1010.2 +30.5
21 13.08 З 5 10 км 8/6 300 м
[Sc Ac trans]
+26.1 +22.3 80 +34 +34 очень
душно
1011.6 1011.1
00 14.08 СЗ 6 10 км 8/8 300 м
[Sc]
+26.2 +22.2 79 +34 +34 очень
душно
1012.4 1011.9
03 14.08 СЗ 6 10 км 10/10 300 м
[Sc]
+26.1 +22.3 80 +34 +34 очень
душно
1010.9 1010.4
06 14.08 СЗ 5 10 км 6/6 300 м
[Sc]
+25.6 +22.0 81 +33 +33 очень
душно
1010.7 1010.2 +25.1
09 14.08 З 5 10 км 8/8 300 м
[Sc]
+26.6 +22.8 80 +35 +36 очень
душно
1011.9 1011.4
12 14.08 З 6 10 км 8/8 300 м
[Sc]
+29.1 +23.0 70 +39 +40 очень
душно
1012.1 1011.6
15 14.08 З 5 10 км 8/8 300 м
[Sc]
+29.5 +23.5 70 +40 +42 очень
душно
1009.7 1009.2
18 14.08 З 4 10 км 8/8 300 м
[Sc]
+28.5 +23.5 74 +39 +39 очень
душно
1009.1 1008.6 +30.5
21 14.08 СЗ 2 10 км 6/6 300 м
[Sc Ac cast]
+26.9 +23.3 81 +36 +36 очень
душно
1009.4 1008.9
00 15.08 З 2 10 км ясно +26.0 +23.1 84 +35 +35 очень
душно
1010.4 1009.9
03 15.08 З 4 10 км 4/4 300 м
[Sc]
+26.1 +23.3 85 +35 +35 очень
душно
1009.1 1008.6
06 15.08 З 3 10 км 4/4 300 м
[Sc]
+23.0 +23.4 100 +32 +32 очень
душно
1009.2 1008.7 +25.1
09 15.08 З 2 10 км [диам. сложн. отлож. 13 мм] 5/4 300 м
[Sc Ci sp]
+28.0 +23.5 77 +38 +42 очень
душно
1010.2 1009.7
12 15.08 З 3 10 км 6/6 450 м
[Sc]
+31.0 +23.6 65 +42 +49 опасность
перегрева
1011.0 1010.5
15 15.08 З 5 10 км 6/0
[Ci sp]
+31.5 +23.0 61 +42 +50 опасность
перегрева
1009.0 1008.5
18 15.08 З 4 10 км 9/0
[Ci sp]
+29.4 +23.0 68 +39 +40 очень
душно
1009.2 1008.7 +32.0
21 15.08 З 2 10 км 6/0
[Ci sp]
+27.6 +23.6 79 +38 +38 очень
душно
1011.3 1010.8
00 16.08 З 2 10 км 8/0
[Ac As]
+27.6 +24.3 82 +39 +39 очень
душно
1012.4 1011.9
03 16.08 З 1 10 км 8/0
[Ac As]
+27.0 +24.0 84 +37 +37 очень
душно
1011.1 1010.6
06 16.08 штиль 0 10 км 8/0
[Ac As]
+26.1 +23.0 83 +35 +35 очень
душно
1011.0 1010.5 +25.4
09 16.08 ЮЗ 2 10 км 5/0
[Ac trans Ci sp]
+28.6 +23.1 72 +38 +43 очень
душно
1011.9 1011.4
12 16.08 З 3 10 км 4/0
[Ci fib]
+32.5 +22.5 56 +42 +57 опасность
перегрева
1011.7 1011.2
15 16.08 З 4 10 км 6/4 700 м
[Cu med, cong Ci fib]
+32.3 +23.0 58 +42 +49 опасность
перегрева
1010.3 1009.8
18 16.08 СЗ 5 10 км 4/1 480 м
[Cu med, cong Ci sp]
+30.2 +24.4 71 +42 +43 опасность
перегрева
1009.5 1009.0 +33.7
21 16.08 СЗ 3 10 км 5/1 300 м
[Sc Ci sp]
+28.1 +24.8 82 +40 +40 очень
душно
1011.0 1010.5
00 17.08 З 3 10 км 9/4 300 м
[Sc Ci sp]
+27.6 +25.3 87 +40 +40 очень
душно
1012.2 1011.7
03 17.08 З 2 10 км 9/9 300 м
[Sc]
+27.5 +25.1 87 +40 +40 очень
душно
1011.6 1011.1
06 17.08 штиль 0 10 км 9/9 300 м
[Sc]
+27.0 +25.0 89 +39 +39 очень
душно
1011.1 1010.6 +26.0
09 17.08 З 2 10 км 8/5 300 м
[Cu med, cong Ac trans]
+28.8 +25.3 81 +42 +44 опасность
перегрева
1012.3 1011.8
12 17.08 З 2 10 км 4/4 400 м
[Cu med, cong]
+30.1 +23.8 69 +41 +53 опасность
перегрева
1012.7 1012.2
15 17.08 З 6 10 км 1/1 450 м
[Sc]
+32.0 +24.7 65 +45 +51 опасность
перегрева
1011.1 1010.6
18 17.08 СЗ 6 10 км 4/0
[Ci fib]
+30.1 +14.4 38 +32 +33 жарко 1009.9 1009.4 +32.0
21 17.08 СЗ 3 10 км 4/3 300 м
[Sc Ci fib]
+28.0 +24.6 82 +40 +40 очень
душно
1011.6 1011.1
00 18.08 10 км 6/4 300 м
[Sc Ac trans]
+27.8 +25.0 85 1012.5 1012.0
03 18.08 штиль 0 10 км зарница 5/5 300 м
[Cb calv]
+27.5 +25.2 87 +40 +40 очень
душно
1011.9 1011.4
06 18.08 В 2 10 км гроза, ливневой дождь 9/5 300 м
[Cb cap Ac As]
+23.5 +22.8 96 +31 +31 очень
душно
1011.7 1011.2 +22.6 0.9

 

Местоположение метеостанции Сент-Луис (Сенегал): широта 16.05 долгота -16.45 высота над уровнем моря 4 м.

В архиве по умолчанию представлена погода в Сент-Луисе за последнюю неделю. Архивные данные за месяц целиком и за предыдущие месяцы, начиная с января 2011 года, Вы можете получить, выбрав интересующий диапазон дат из раскрывающегося списка и нажав кнопку "Ввод!".


*Определитесь, кто Вы:
робот инопланетянин человек

Внимание! Время в таблицах - всемирное. Для получения местного времени необходимо прибавить поправку, которая равна 0 ч.

Смотрите также архив погоды в соседних городах и на ближайших метеорологических станциях:

Погода в Росо (Мавритания) (85 км)
Погода в Диурбеле (Сенегал) (157 км)
Погода в Лингере (Сенегал) (162 км)
Погода в Подоре (Сенегал) (172 км)
Погода в Дакаре (Сенегал) (185 км)
Погода в Каолаке (Сенегал) (218 км)
Погода в Нуакшоте (Мавритания) (234 км)
Погода в Бутилимите (Мавритания) (250 км)
Погода в Сапу (Гамбия) (281 км)
Погода в Кауере (Гамбия) (287 км)

Пояснения к столбцам:

Ветер - указаны скорость ветра в м/с - средняя за 10 мин, порывы в срок и между сроками (в фигурных скобках) и направление, откуда дует ветер: С - северный, СВ - северо-восточный, В - восточный, ЮВ - юго-восточный, Ю - южный, ЮЗ - юго-западный, З - западный, СЗ - северо-западный.
Видимость - горизонтальная дальность видимости в метрах или километрах. При видимости от 1 до 10 км при отсутствии осадков обычно наблюдается дымка, при ухудшении видимости до 1 км и менее - туман. В сухую погоду видимость может ухудшаться дымом, пылью или мглою.
Явления - указаны атмосферные явления, наблюдавшиеся в срок или в последний час перед сроком; фигурными скобками обозначены явления, наблюдавшиеся между сроками (за 1-3 часа до срока); квадратными скобками обозначены град или гололедные отложения с указанием их диаметра в мм.
Облачность - указаны через наклонную черту общая и нижняя облачность в баллах и высота нижней границы облаков в метрах; квадратными скобками обозначены формы облаков: Ci - перистые, Cs - перисто-слоистые, Cc - перисто-кучевые, Ac - высококучевые, As - высокослоистые, Sc - слоисто-кучевые, Ns - слоисто-дождевые, Cu - кучевые, Cb - кучево-дождевые. Подробнее классификацию облаков см. в Атласе облаков (PDF).
T - Температура воздуха - температура, измеренная на высоте 2 м над землей.
Td - Температура точки росы - температура, при понижении до которой содержащийся в воздухе водяной пар достигнет насыщения.
f - Относительная влажность воздуха - влажноcть воздуха, измеренная на высоте 2 м над землей.
Te - Эффективная температура - температура, которую ощущает одетый по сезону человек в тени. Характеристика душности погоды. При расчете учитывается влияние влажности воздуха и скорости ветра на теплоощущения человека.
Tes - Эффективная температура на солнце - температура, которую ощущает человек, с поправкой на солнечный нагрев. Характеристика знойности погоды. Зависит от высоты солнца над горизонтом, облачности и скорости ветра. Ночью, в пасмурную погоду, а также при ветре 12 м/с и более поправка равна нулю.
P - Атмосферное давление - приведенное к уровню моря атмосферное давление.
Po - Атмосферное давление - измеренное на уровне метеостанции атмосферное давление.
Tmin - Минимальная температура - минимум температуры воздуха на высоте 2 м над землей.
Tmax - Максимальная температура - максимум температуры воздуха на высоте 2 м над землей.
R - Количество осадков - Количество выпавших осадков за период времени, мм. При наведении курсора мыши на число - период времени, за который выпало указанное количество осадков.
R24 - Количество осадков - Количество выпавших осадков за 24 часа, мм.
S - Снежный покров - Высота снежного покрова, см. При наведении курсора мыши на число - состояние снежного покрова и степень покрытия местности в баллах.